CAPE
28 23 21 21 20 18 15 16 12 10 7 7 8 12 17 19 19 16 11 6 3 15 18 14 7 19 4 0 0 0 0 0 0 0 0 0 0 0 0 0 0 0 0 0 0 0 0
19 19 17 17 20 19 17 13 4 19 24 22 21 21 16 10 9 13 16 10 5 0 5 14 12 27 12 0 0 0 0 0 0 0 0 0 0 0 0 0 0 0 0 0 0 0 0
30 19 21 23 26 26 13 7 12 21 21 20 27 22 15 12 9 10 14 18 16 6 2 2 17 23 11 0 0 0 0 0 0 0 0 0 0 0 0 0 0 0 0 0 0 0 0
18 15 23 18 17 13 8 14 20 15 13 15 22 28 21 18 14 12 11 16 17 4 11 6 10 6 2 0 0 0 0 0 0 0 0 0 0 0 0 0 0 0 0 0 0 0 0
14 13 13 10 11 12 9 16 22 14 16 18 28 40 20 11 11 15 15 24 1 3 10 6 5 12 0 0 0 0 0 0 0 0 0 0 0 0 0 0 0 0 0 0 0 0 0
16 17 15 20 19 12 16 21 22 17 21 21 34 38 28 20 21 13 16 2 0 0 0 1 5 0 0 0 0 0 0 0 0 0 0 0 0 0 0 0 0 0 0 0 0 0 0
29 22 13 17 15 24 25 25 27 28 22 26 34 41 33 13 18 31 4 0 0 0 0 0 0 0 0 0 0 0 0 0 0 0 0 0 0 0 0 0 0 0 0 0 0 0 0
18 16 21 26 24 24 19 15 13 5 15 23 33 27 22 14 14 28 0 0 0 0 2 0 0 0 0 0 0 0 0 0 0 0 0 0 0 0 0 0 0 0 0 0 0 0 0
21 23 26 18 19 19 13 14 7 10 26 35 45 26 21 17 13 0 0 0 0 0 3 0 0 0 0 0 0 0 0 0 0 0 0 0 0 0 0 0 0 0 0 0 0 0 0
14 14 17 20 39 30 11 21 15 7 11 44 41 34 29 36 0 0 0 0 0 1 0 0 0 0 0 0 0 0 0 0 0 0 0 0 0 0 0 0 0 0 0 0 0 0 0
14 14 27 34 35 26 23 30 34 14 27 33 43 17 29 33 3 1 0 0 0 0 0 0 0 0 0 0 0 0 0 0 0 0 0 0 0 0 0 0 0 0 0 0 0 0 0
9 25 31 40 31 36 51 53 45 50 47 35 31 15 31 0 0 0 0 0 0 8 0 0 0 0 0 0 0 0 0 0 0 0 0 0 0 0 0 0 0 0 0 0 0 0 0
18 19 27 30 39 46 45 42 46 42 32 30 17 8 9 6 0 0 0 0 3 4 0 0 0 0 0 0 0 0 0 0 0 0 0 0 0 0 0 0 0 0 0 0 0 0 0
9 9 22 46 57 51 47 39 36 25 17 20 11 4 1 0 0 0 0 0 0 0 0 2 0 0 5 0 0 0 0 0 0 0 0 0 0 0 0 0 0 0 0 0 0 0 0
6 10 5 20 46 58 54 37 28 13 1 2 2 0 0 0 0 0 0 0 0 16 20 0 0 0 1 0 0 0 0 0 0 0 0 0 0 0 0 0 0 0 0 0 0 0 0
10 8 14 20 56 56 55 41 33 17 4 1 0 0 0 0 0 36 4 1 1 9 4 0 0 3 0 0 0 0 0 0 0 0 0 0 0 0 0 0 0 0 0 0 0 0 0
26 16 22 38 52 51 46 43 33 23 4 0 0 0 0 0 0 16 1 0 0 0 3 1 7 7 0 4 2 5 7 1 0 0 0 0 0 0 0 0 0 0 0 0 0 0 0
22 24 24 33 51 47 41 36 34 32 3 0 0 0 0 0 16 1 0 0 6 5 2 0 1 0 0 15 30 11 22 10 2 0 0 0 0 0 0 0 0 0 0 0 0 0 0
17 15 19 21 27 38 38 41 43 35 19 2 2 0 0 1 0 0 0 0 0 0 0 0 0 0 0 0 5 2 10 6 2 0 0 0 0 0 0 0 0 0 0 0 0 0 0
4 3 5 10 18 22 29 41 43 44 27 0 0 0 0 0 1 16 10 0 2 0 0 0 0 0 0 0 0 16 12 4 12 1 28 0 0 0 0 0 0 0 0 0 0 0 0
2 3 2 4 3 12 22 38 43 35 14 0 0 0 1 1 0 1 2 1 0 3 8 0 0 1 3 8 5 26 8 15 1 13 0 0 0 0 0 0 0 0 0 0 0 0 0
10 5 3 3 3 12 11 19 39 40 2 0 0 17 0 3 1 2 0 0 3 1 4 2 1 0 0 0 0 4 5 18 5 2 0 0 0 0 0 0 0 0 0 0 0 0 0
7 9 6 3 2 10 11 17 32 50 0 5 2 12 30 0 1 1 3 2 0 3 0 2 0 0 0 0 0 0 0 14 5 0 2 0 0 0 0 0 0 0 0 0 0 0 0
9 7 8 3 5 6 11 19 28 46 41 9 1 19 30 7 26 4 1 3 0 0 15 0 0 0 0 0 0 0 0 4 36 10 0 0 0 0 0 0 0 0 0 0 0 0 0
2 5 6 3 4 6 12 25 35 43 63 4 0 18 26 5 7 1 8 4 0 0 0 0 0 0 0 0 0 0 17 22 16 9 6 2 23 0 0 0 0 0 0 0 0 0 0
0 3 8 3 2 10 28 31 48 51 54 0 0 0 32 12 0 1 12 11 9 13 4 0 0 0 0 0 0 0 19 21 7 4 5 2 0 0 0 0 0 1 0 0 0 0 0
1 2 4 6 6 10 17 30 42 50 51 4 3 0 33 13 0 0 14 10 8 23 25 0 0 0 0 0 0 4 4 2 0 0 0 1 11 0 0 0 0 0 0 0 0 0 0
0 3 6 3 2 5 15 23 38 46 53 8 0 0 27 21 0 0 0 0 7 8 18 0 0 1 0 0 0 20 100 14 0 0 6 0 2 9 1 0 0 0 0 0 0 0 0
0 1 3 3 4 6 12 20 28 33 57 11 1 0 0 15 0 0 0 0 0 0 2 0 0 0 0 17 12 32 14 7 11 8 12 17 14 17 24 5 0 0 0 0 0 0 0
CIN
-0 -0 -0 -0 -0 -0 -0 -0 -0 -0 -0 -0 -0 -0 -0 -0 -0 -0 -0 -0 -0 -0 -0 -0 -0 -0 -2 -0 -0 -0 -0 -0 -0 -0 -0 -0 -0 -0 -0 -0 -0 -0 -0 -0 -0 -0 -0
-0 -0 -0 -0 -0 -0 -0 -0 -0 -0 -0 -0 -0 -0 -0 -0 -0 -0 -0 -0 -0 -0 -0 -0 -0 -0 -0 -0 -0 -0 -0 -0 -0 -0 -0 -0 -0 -0 -0 -0 -0 -0 -0 -0 -0 -0 -0
-0 -0 -0 -0 -0 -0 -0 -0 -0 -0 -0 -0 -0 -0 -0 -0 -0 -0 -0 -0 -0 -0 -0 -0 -0 -0 -0 -0 -0 -0 -0 -0 -0 -0 -0 -0 -0 -0 -0 -0 -0 -0 -0 -0 -0 -0 -0
-0 -0 -0 -0 -1 -0 -0 -0 -0 -0 -0 -0 -0 -0 -0 -0 -0 -0 -0 -0 -0 -0 -0 -0 -0 -2 -0 -0 -0 -0 -0 -0 -0 -0 -0 -0 -0 -0 -0 -0 -0 -0 -0 -0 -0 -0 -0
-0 -0 -0 -0 -0 -0 -0 -0 -0 -0 -0 -0 -0 -0 -0 -0 -0 -0 -0 -0 -0 -0 -0 -0 -0 -0 -0 -0 -0 -0 -0 -0 -0 -0 -0 -0 -0 -0 -0 -0 -0 -0 -0 -0 -0 -0 -0
-0 -0 -0 -0 -0 -0 -0 -0 -0 -0 -0 -0 -0 -0 -0 -0 -0 -0 -0 -0 -0 -0 -0 -0 -0 -0 -0 -0 -0 -0 -0 -0 -0 -0 -0 -0 -0 -0 -0 -0 -0 -0 -0 -0 -0 -0 -0
-0 -0 -0 -0 -0 -0 -0 -0 -0 -0 -0 -0 -0 -0 -0 -0 -0 -0 -0 -0 -0 -0 -4 -0 -0 -0 -0 -0 -0 -0 -0 -0 -0 -0 -0 -0 -0 -0 -0 -0 -0 -0 -0 -0 -0 -0 -0
-0 -0 -0 -0 -0 -0 -0 -0 -0 -0 -0 -0 -0 -0 -0 -0 -0 -0 -0 -0 -0 -2 -0 -0 -0 -0 -0 -0 -0 -0 -0 -0 -0 -0 -0 -0 -0 -0 -0 -0 -0 -0 -0 -0 -0 -0 -0
-0 -0 -0 -0 -0 -0 -0 -0 -0 -0 -0 -0 -0 -0 -0 -0 -0 -0 -0 -0 -0 -0 -18 -0 -0 -0 -0 -0 -0 -0 -0 -0 -0 -0 -0 -0 -0 -0 -0 -0 -0 -0 -0 -0 -0 -0 -0
-0 -0 -0 -0 -0 -0 -0 -0 -0 -0 -0 -0 -0 -0 -0 -0 -0 -0 -0 -0 -0 -75 -0 -0 -0 -0 -0 -0 -0 -0 -0 -0 -0 -0 -0 -0 -0 -0 -0 -0 -0 -0 -0 -0 -0 -0 -0
-0 -0 -0 -0 -0 -0 -0 -0 -0 -0 -0 -0 -0 -0 -0 -0 -0 -0 -0 -0 -0 -1 -0 -0 -0 -0 -0 -0 -0 -0 -0 -0 -0 -0 -0 -0 -0 -0 -0 -0 -0 -0 -0 -0 -0 -0 -0
-0 -0 -0 -0 -0 -0 -0 -0 -0 -0 -0 -0 -0 -0 -0 -0 -0 -0 -0 -0 -0 -8 -0 -0 -0 -0 -0 -0 -0 -0 -0 -0 -0 -0 -0 -0 -0 -0 -0 -0 -0 -0 -0 -0 -0 -0 -0
-0 -0 -0 -0 -0 -0 -0 -0 -0 -0 -0 -0 -0 -0 -0 -0 -0 -0 -0 -0 -4 -3 -0 -0 -0 -0 -0 -0 -0 -0 -0 -0 -0 -0 -0 -0 -0 -0 -0 -0 -0 -0 -0 -0 -0 -0 -0
-0 -0 -0 -0 -0 -0 -0 -0 -0 -0 -0 -0 -0 -0 -0 -0 -0 -0 -0 -0 -0 -0 -0 -27 -0 -0 -0 -0 -0 -0 -0 -0 -0 -0 -0 -0 -0 -0 -0 -0 -0 -0 -0 -0 -0 -0 -0
-0 -0 -0 -0 -0 -0 -0 -0 -0 -0 -0 -0 -0 -0 -0 -0 -0 -1 -3 -1 -0 -6 -16 -0 -0 -0 -11 -6 -0 -0 -0 -0 -0 -0 -0 -0 -0 -0 -0 -0 -0 -0 -0 -0 -0 -0 -0
-0 -0 -0 -0 -0 -0 -0 -0 -0 -0 -0 -0 -0 -0 -0 -0 -0 -11 -2 -0 -4 -25 -16 -0 -0 -2 -0 -0 -0 -0 -0 -0 -0 -0 -0 -0 -0 -0 -0 -0 -0 -0 -0 -0 -0 -0 -0
-0 -0 -0 -0 -0 -0 -0 -0 -0 -0 -0 -0 -0 -0 -0 -0 -0 -0 -0 -0 -0 -0 -4 -4 -1 -3 -0 -1 -1 -0 -0 -0 -0 -0 -0 -0 -0 -0 -0 -0 -0 -0 -0 -0 -0 -0 -0
-0 -0 -0 -0 -0 -0 -0 -0 -0 -0 -1 -0 -0 -0 -0 -0 -3 -0 -0 -2 -7 -23 -5 -0 -11 -0 -0 -3 -0 -1 -0 -0 -0 -0 -0 -0 -0 -0 -0 -0 -0 -0 -0 -0 -0 -0 -0
-0 -0 -0 -0 -0 -0 -0 -0 -0 -0 -0 -2 -1 -0 -0 -19 -0 -0 -0 -0 -2 -0 -0 -0 -0 -0 -0 -0 -2 -3 -0 -0 -0 -0 -0 -0 -0 -0 -0 -0 -0 -0 -0 -0 -0 -0 -0
-1 -0 -0 -0 -0 -0 -0 -0 -0 -0 -0 -0 -0 -0 -0 -0 -3 -0 -0 -0 -2 -6 -0 -0 -0 -0 -2 -0 -0 -1 -0 -1 -0 -0 -0 -0 -0 -0 -0 -0 -0 -0 -0 -0 -0 -0 -0
-0 -0 -0 -0 -0 -0 -0 -0 -0 -1 -3 -0 -0 -0 -0 -0 -0 -0 -0 -0 -0 -0 -30 -0 -0 -0 -4 -0 -19 -7 -4 -0 -0 -0 -0 -0 -0 -0 -0 -0 -0 -0 -0 -0 -0 -0 -0
-0 -0 -0 -0 -1 -0 -0 -0 -0 -0 -4 -0 -0 -3 -12 -0 -21 -2 -0 -0 -1 -0 -0 -12 -6 -0 -0 -0 -1 -0 -0 -0 -0 -0 -0 -0 -0 -0 -0 -0 -0 -0 -0 -0 -0 -0 -0
-0 -0 -0 -0 -0 -0 -0 -0 -0 -0 -0 -12 -15 -13 -0 -0 -0 -0 -6 -5 -3 -3 -0 -6 -0 -0 -0 -0 -0 -0 -0 -17 -2 -3 -2 -0 -0 -0 -0 -0 -0 -0 -0 -0 -0 -0 -0
-0 -0 -0 -0 -0 -0 -0 -1 -1 -1 -2 -3 -6 -0 -0 -0 -0 -0 -0 -0 -0 -0 -0 -0 -0 -0 -0 -0 -0 -0 -0 -34 -17 -15 -0 -0 -0 -0 -0 -0 -0 -0 -0 -0 -0 -0 -0
-0 -0 -0 -0 -0 -0 -0 -0 -0 -1 -2 -7 -0 -2 -0 -0 -0 -0 -0 -0 -0 -0 -0 -0 -0 -0 -0 -0 -0 -0 -10 -3 -2 -1 -1 -0 -0 -0 -0 -0 -0 -0 -0 -0 -0 -0 -0
-0 -0 -0 -0 -0 -0 -0 -0 -0 -0 -1 -0 -1 -0 -0 -0 -0 -1 -0 -0 -0 -0 -1 -0 -0 -0 -0 -0 -9 -0 -2 -0 -0 -0 -0 -0 -0 -0 -0 -0 -0 -0 -0 -0 -0 -0 -0
-0 -0 -0 -0 -0 -0 -0 -0 -0 -0 -0 -3 -9 -0 -0 -0 -0 -0 -0 -0 -0 -0 -0 -0 -0 -0 -0 -0 -0 -7 -6 -7 -0 -0 -0 -0 -0 -0 -0 -0 -0 -0 -0 -0 -0 -0 -0
-0 -0 -0 -0 -0 -0 -0 -0 -0 -0 -1 -2 -1 -0 -0 -0 -2 -0 -0 -0 -0 -0 -0 -0 -0 -7 -0 -0 -0 -7 -0 -0 -0 -0 -0 -0 -0 -0 -0 -0 -0 -0 -0 -0 -0 -0 -0
-0 -0 -0 -0 -0 -0 -0 -0 -0 -0 -1 -15 -9 -0 -8 -0 -0 -0 -0 -0 -0 -0 -0 -0 -0 -3 -2 -3 -1 -0 -0 -0 -0 -0 -0 -0 -0 -0 -0 -0 -0 -0 -0 -0 -0 -0 -0
Wind_Speed
17 16 17 17 17 17 17 17 17 17 17 17 18 19 19 18 16 16 16 17 17 18 17 16 15 14 5 4 11 8 18 9 8 5 8 10 12 9 10 8 10 9 11 9 10 10 11
16 16 16 17 17 16 18 18 17 17 16 17 17 18 18 19 19 19 18 17 16 17 17 15 14 13 5 19 8 10 13 8 7 5 6 6 9 6 6 7 8 6 14 17 9 20 17
16 17 17 17 17 17 18 18 18 18 18 18 18 17 18 19 20 20 19 18 16 16 17 16 14 10 14 26 9 15 19 7 8 6 7 10 8 8 6 3 6 5 7 8 11 16 8
18 18 18 18 18 19 20 20 20 20 21 20 19 18 19 19 19 20 20 19 20 21 19 16 13 9 15 4 8 19 15 13 12 11 6 6 11 6 4 2 3 2 2 3 7 5 7
15 16 16 16 17 17 19 19 19 20 21 20 20 18 20 21 21 20 20 20 23 23 16 10 6 5 14 8 7 17 17 13 3 8 6 8 6 7 4 8 7 3 9 10 9 7 4
15 16 16 17 16 17 17 18 18 19 20 21 20 19 18 19 19 21 20 21 18 6 2 5 5 4 6 5 8 7 8 18 8 5 4 6 5 6 5 8 17 5 5 7 10 2 4
18 18 18 19 19 17 17 18 19 19 20 21 22 20 18 18 18 16 12 7 5 2 1 5 7 11 17 7 10 4 3 10 8 5 11 7 9 22 21 13 6 7 14 13 3 5 7
18 18 18 19 20 19 19 20 21 22 21 22 22 20 19 17 17 15 3 1 3 2 11 11 20 23 25 15 13 15 8 8 10 18 13 6 29 19 11 15 14 9 12 17 11 4 7
19 19 19 19 19 19 20 21 21 21 21 21 20 19 18 18 17 4 0 5 4 7 6 10 13 9 12 15 18 27 9 6 7 14 25 27 18 12 15 9 13 13 18 16 11 6 6
20 19 19 19 18 18 20 21 22 22 23 21 20 17 16 16 3 2 4 3 6 5 4 10 4 7 5 7 11 27 9 8 7 19 18 18 23 18 10 18 15 19 15 15 12 5 9
18 18 18 18 19 20 20 22 23 23 23 21 19 19 15 9 7 4 4 7 8 1 6 3 3 3 4 7 9 10 26 8 10 11 11 13 18 21 24 24 20 13 7 7 7 7 2
18 19 20 19 20 20 20 20 22 21 20 20 19 19 15 3 1 7 5 7 2 2 9 5 5 11 11 8 14 9 9 18 5 6 9 14 6 20 12 9 13 5 3 4 4 1 10
19 20 20 21 20 20 20 21 22 21 21 20 19 19 12 4 4 3 2 2 2 5 6 2 8 14 20 13 7 6 11 18 13 14 13 5 9 3 8 13 5 7 8 2 5 1 7
19 19 20 20 20 21 21 21 22 21 20 21 20 14 4 5 0 3 2 3 5 4 6 13 14 15 11 15 9 21 8 14 22 2 11 9 6 15 7 11 14 15 10 8 7 4 5
20 20 21 22 21 21 21 21 22 21 21 21 17 3 3 3 3 3 3 2 4 2 4 10 13 8 7 12 4 14 7 3 8 22 5 10 8 4 15 8 18 12 12 12 1 2 1
19 20 21 21 21 21 21 21 22 21 21 21 7 5 4 6 3 1 1 3 4 5 9 7 5 5 7 11 8 13 7 12 12 9 15 3 3 7 15 9 19 10 11 7 6 6 3
19 20 20 20 20 21 21 22 22 22 20 15 3 4 4 5 4 2 1 4 5 8 7 4 3 4 8 12 6 3 9 8 22 24 10 1 4 4 10 17 17 6 7 4 8 5 6
20 20 20 21 21 21 21 21 21 20 19 6 2 3 4 3 3 2 3 4 8 7 6 6 5 9 9 9 4 1 5 10 23 19 12 3 1 4 13 8 21 22 16 9 8 5 5
20 21 21 21 21 22 21 20 21 21 12 4 4 4 4 1 2 3 5 5 4 5 5 4 5 4 7 7 6 5 3 4 12 16 15 8 4 2 5 2 2 23 18 16 6 4 13
22 22 22 21 21 21 21 21 20 18 12 3 3 5 4 4 1 3 6 7 4 6 9 4 5 6 6 6 7 4 8 2 7 15 16 7 3 5 9 5 6 5 15 19 11 4 4
23 23 23 22 21 20 20 21 20 17 12 3 3 3 1 4 4 8 5 4 5 5 4 6 4 4 5 4 6 1 6 3 5 9 11 2 4 5 10 13 3 7 12 19 17 23 13
23 23 23 23 22 21 20 20 20 17 9 4 2 2 4 6 7 8 4 3 4 5 4 5 3 11 7 5 6 7 8 5 1 3 6 3 4 6 5 8 14 10 7 16 23 20 17
22 22 23 23 22 20 19 19 18 17 4 2 2 2 2 4 4 2 2 4 9 11 9 7 9 13 10 11 3 9 8 7 5 3 4 4 5 7 5 8 4 8 15 8 9 13 18
22 23 23 23 22 20 19 19 18 16 5 1 2 2 3 4 4 4 10 14 13 11 10 15 13 6 7 8 13 10 9 11 10 11 8 3 6 2 4 5 5 1 16 2 11 10 11
24 24 24 24 23 21 19 19 18 17 11 2 2 2 2 5 6 11 8 11 12 11 10 9 10 6 4 6 4 4 2 4 11 5 2 6 2 3 2 3 4 7 13 11 6 4 12
25 25 24 24 23 22 20 19 17 16 12 2 3 3 3 4 4 4 11 9 5 4 5 5 7 5 2 1 2 2 1 1 2 2 4 9 10 4 1 2 3 9 15 7 4 3 14
24 25 25 24 24 23 22 20 17 15 13 1 2 4 3 4 5 4 5 5 4 3 4 5 7 7 3 3 2 2 3 1 4 3 2 3 1 3 2 2 1 13 17 1 6 6 15
25 25 25 24 24 24 21 20 17 16 11 1 3 5 2 3 9 7 4 6 6 4 3 4 4 3 3 6 4 4 3 1 1 1 1 2 1 0 2 1 2 17 6 9 5 6 8
26 26 26 25 23 23 21 19 17 16 11 2 2 2 3 4 9 6 12 17 13 18 4 2 3 3 3 1 2 4 2 4 3 1 4 2 2 2 5 3 8 10 3 1 4 7 8
Wind_Direction
15 15 12 9 6 5 360 355 351 349 348 346 343 344 341 335 325 320 319 319 316 319 321 319 316 318 353 273 244 280 321 11 64 123 201 192 162 149 187 208 212 237 241 242 249 268 258
11 5 4 2 2 360 356 349 347 346 343 340 338 337 337 331 328 324 315 313 312 312 310 308 305 307 248 252 241 306 359 324 193 169 191 214 197 183 194 223 181 196 234 254 264 257 259
6 2 1 358 356 355 352 347 345 343 342 341 338 336 332 330 326 322 319 310 303 300 303 299 297 289 257 248 275 293 302 281 315 220 198 211 248 189 171 308 219 222 237 260 250 255 247
360 358 357 354 353 351 347 343 341 344 339 337 336 335 332 327 323 321 315 312 303 295 294 290 291 287 257 249 234 264 264 279 235 271 256 222 219 238 196 287 4 189 207 238 255 219 252
358 353 351 350 348 346 343 338 338 338 335 333 332 332 332 329 325 321 318 310 298 296 293 265 267 218 271 308 253 245 233 229 247 201 230 265 179 196 138 224 284 248 248 254 289 231 231
358 353 350 344 344 344 341 335 339 332 331 330 329 328 327 325 323 321 323 311 301 308 92 159 245 324 255 239 304 238 194 202 210 151 139 200 206 187 183 172 214 192 242 238 234 263 214
355 357 352 353 349 348 338 336 334 333 331 327 327 325 323 323 324 320 335 339 15 352 23 213 201 250 299 306 350 302 164 166 198 166 173 188 198 214 204 203 201 206 231 247 250 207 243
1 359 355 350 346 346 339 339 336 334 330 326 326 325 323 321 321 322 17 33 13 30 297 253 250 247 248 260 291 293 193 149 186 198 163 179 228 217 184 200 208 209 237 252 267 228 236
1 356 354 351 345 344 342 337 334 332 327 325 324 324 323 320 319 28 230 243 331 344 266 279 230 236 230 218 225 259 238 177 181 186 189 202 219 195 191 186 199 214 223 241 246 314 253
359 355 352 346 343 343 339 333 331 329 327 322 319 320 322 326 22 272 275 335 330 296 301 273 218 252 198 222 245 232 217 196 193 195 195 231 221 192 182 207 187 220 216 241 263 273 266
356 355 351 345 343 341 336 331 329 329 322 320 318 319 315 328 293 279 266 329 321 189 314 241 198 170 264 187 307 233 203 255 202 167 163 209 178 202 204 207 199 233 202 216 229 228 226
357 355 351 347 345 342 334 330 330 328 324 320 318 318 318 333 263 242 346 309 100 101 246 299 29 344 333 243 254 281 164 223 191 181 237 215 204 199 183 183 204 135 217 30 34 58 257
356 352 348 345 345 341 337 332 331 330 328 321 317 315 302 255 234 148 329 30 101 206 333 10 346 333 318 340 313 190 224 196 189 185 202 157 222 167 153 211 165 138 97 291 336 316 233
355 352 347 344 344 340 338 335 332 330 327 325 323 324 320 247 299 247 31 71 217 256 251 351 340 319 329 17 334 334 220 220 230 147 169 174 206 194 171 181 192 196 166 153 201 223 255
352 350 349 344 340 339 339 337 336 335 331 330 329 313 307 267 197 173 88 188 228 283 18 337 335 323 340 354 347 345 318 359 222 235 206 186 237 179 189 160 177 197 190 179 0 180 329
349 348 345 341 339 339 339 340 340 339 335 336 327 325 308 314 143 141 181 240 272 338 328 322 303 319 327 332 354 350 306 9 351 332 229 221 163 191 210 186 190 156 143 177 199 202 224
346 345 343 341 340 340 342 342 341 341 339 339 31 18 286 21 9 59 313 267 296 288 321 303 293 289 297 307 327 28 289 26 7 346 329 272 153 275 142 197 183 164 172 155 165 165 167
344 343 343 342 340 340 341 342 341 342 339 19 357 13 291 335 33 14 309 310 314 293 299 264 263 252 257 319 312 242 268 325 344 342 334 311 305 220 212 163 194 199 193 155 189 196 212
342 342 342 341 341 341 339 339 340 346 359 328 341 298 302 31 34 338 299 286 264 295 284 317 304 299 311 292 303 217 275 353 326 322 343 342 279 155 13 321 173 200 206 207 114 104 206
339 338 339 340 339 339 338 337 339 345 352 68 353 336 322 28 181 298 325 300 296 281 280 268 264 285 324 312 304 273 262 287 343 330 330 355 277 264 204 196 139 146 201 206 195 199 205
339 337 336 336 340 338 336 336 337 341 345 80 25 298 295 316 316 314 303 291 294 316 319 300 301 13 334 310 303 317 15 325 12 349 334 28 277 317 300 291 267 162 178 198 201 215 211
336 337 336 335 339 337 337 333 335 339 351 66 11 335 325 286 277 320 329 273 325 338 299 305 289 312 314 288 279 294 335 29 126 344 308 311 292 346 290 261 275 265 252 212 199 208 231
332 332 333 335 337 337 335 329 327 335 21 332 278 281 266 276 298 293 269 303 308 312 276 232 305 315 306 287 318 285 251 225 218 271 331 308 351 356 304 339 257 261 233 206 206 224 202
333 333 332 332 332 336 334 326 323 323 332 217 259 272 271 283 264 275 286 294 284 283 283 289 286 252 250 330 317 272 231 219 204 233 218 244 313 267 268 304 163 271 26 270 192 44 1
335 334 333 332 330 332 330 325 324 320 327 183 198 245 276 285 271 286 288 293 304 300 275 263 275 233 324 299 276 299 130 158 221 206 25 206 212 253 176 271 261 19 21 351 9 57 8
335 334 334 332 330 330 329 325 321 317 324 153 204 209 269 285 253 333 306 299 295 305 309 275 302 312 10 241 249 225 277 143 165 157 346 324 191 189 45 209 158 350 320 290 160 157 354
332 333 333 330 329 329 329 328 325 318 308 235 256 201 255 282 269 191 278 305 275 289 277 290 326 338 23 350 8 180 224 206 156 174 236 61 0 182 227 244 20 345 326 125 139 291 318
331 331 330 328 329 331 329 327 323 316 306 140 244 194 234 260 279 228 233 218 265 259 290 317 343 335 350 17 336 328 291 80 320 54 9 128 272 3 181 239 122 356 6 61 271 284 285
329 330 329 327 329 330 330 324 318 311 307 154 258 197 182 246 262 232 242 247 220 242 267 262 250 252 219 315 341 295 15 352 333 183 12 78 37 338 9 11 329 339 335 293 281 270 304